Regional Weather Roundup
Issued by NWS

Home | Current Version | Previous Version | Graphics & Text | Print | Product List | Glossary On
Versions: 1 2 3 4 5 6 7 8 9 10 11 12 13 14 15 16 17 18 19 20 21 22 23 24 25 26 27 28 29 30 31 32 33 34 35 36 37 38 39 40 41 42 43 44 45 46 47 48 49 50
000
ASUS43 KBIS 251810
RWRND

NORTH DAKOTA REGIONAL WEATHER ROUNDUP
NATIONAL WEATHER SERVICE BISMARCK ND
1200 PM CST SUN FEB 25 2018

NOTE: "FAIR" INDICATES FEW OR NO CLOUDS BELOW 12,000 FEET WITH NO
SIGNIFICANT WEATHER AND/OR OBSTRUCTIONS TO VISIBILITY.


NDZ001>003-009>011-017-251900-
NORTHWEST NORTH DAKOTA

CITY           SKY/WX    TMP DP  RH WIND       PRES   REMARKS
WILLISTON      SUNNY     20   9  62 SW13      29.64F WCI   7
6HR MIN TEMP:  12; 6HR MAX TEMP:  20;

MINOT          MOSUNNY   28  16  60 W16       29.62R WCI  16
MINOT AFB      SUNNY     26  16  67 W13         N/A  WCI  15
$$

NDZ018>021-031>035-040>046-251900-
SOUTHWEST NORTH DAKOTA

CITY           SKY/WX    TMP DP  RH WIND       PRES   REMARKS
BISMARCK       SUNNY     28  17  63 W16       29.72R WCI  16
6HR MIN TEMP:  22; 6HR MAX TEMP:  28;

DICKINSON      SUNNY     23  13  65 W17       29.64R WCI   9
GARRISON         N/A     24  15  68 W15       29.65R WCI  11
6HR MIN TEMP:  17; 6HR MAX TEMP:  24;

HETTINGER ARPT SUNNY     22  14  71 W14       29.71R WCI   9
$$

NDZ004>008-012>016-024-026-027-054-251900-
NORTHEAST NORTH DAKOTA

CITY           SKY/WX    TMP DP  RH WIND       PRES   REMARKS
GRAND FORKS    CLOUDY    27  21  78 W15       29.59R WCI  15
GRND FRKS AFB  CLOUDY    27  18  70 W12       29.59R WCI  16
DEVILS LAKE    CLOUDY    23  18  81 W18       29.59R WCI   9
$$

NDZ022-023-025-028>030-036>039-047>053-251900-
SOUTHEAST NORTH DAKOTA

CITY           SKY/WX    TMP DP  RH WIND       PRES   REMARKS
FARGO          PTSUNNY   26  20  77 W15       29.65R WCI  14
6HR MIN TEMP:  12; 6HR MAX TEMP:  26;

JAMESTOWN      SUNNY     27  19  72 W21       29.65R WCI  13
$$





USA.gov is the U.S. government's official web portal to all federal, state and local government web resources and services.